ALK144 VABB-VCBI

Flight info

Callsign ALK144
Flight time 2h 5m
Altitude 37000
Route VEVAK2A EPKOS W128 BBM R458 GUNIM R461 MDI M641 BIKOK BIKOK1A
Aircraft A320/M-SDE3FGHIRWY/LB1

Departure

Time 2026-05-06 12:36
Airport Chhatrapati Shivaji Maharaj International Airport (VABB)

Arrival

Time 2026-05-06 14:42
Airport Bandaranaike International Colombo Airport (VCBI)
Time Latitude Longitude Altitude Speed Heading
2026-05-06 12:17 19.09313 72.87145 50 ft 0 kts 359°
2026-05-06 12:27 19.09300 72.87145 49 ft 4 kts
2026-05-06 12:27 19.09274 72.87143 44 ft 4 kts 10°
2026-05-06 12:27 19.09248 72.87135 47 ft 4 kts 34°
2026-05-06 12:27 19.09235 72.87118 48 ft 2 kts 89°
2026-05-06 12:28 19.09235 72.87112 48 ft 0 kts 90°
2026-05-06 12:30 19.09235 72.87113 48 ft 1 kts 90°
2026-05-06 12:30 19.09235 72.87120 47 ft 1 kts 90°
2026-05-06 12:31 19.09235 72.87137 48 ft 3 kts 90°
2026-05-06 12:31 19.09235 72.87169 49 ft 5 kts 89°
2026-05-06 12:31 19.09236 72.87216 49 ft 7 kts 89°
2026-05-06 12:31 19.09206 72.87259 49 ft 9 kts 159°
2026-05-06 12:32 19.09141 72.87264 49 ft 10 kts 179°
2026-05-06 12:32 19.09080 72.87265 49 ft 8 kts 178°
2026-05-06 12:32 19.09050 72.87310 50 ft 9 kts 90°
2026-05-06 12:32 19.09052 72.87384 49 ft 11 kts 89°
2026-05-06 12:33 19.09052 72.87470 49 ft 13 kts 89°
2026-05-06 12:33 19.09054 72.87570 49 ft 14 kts 89°
2026-05-06 12:33 19.09055 72.87677 49 ft 16 kts 89°
2026-05-06 12:33 19.09057 72.87803 49 ft 18 kts 90°
2026-05-06 12:34 19.09058 72.87939 48 ft 18 kts 89°
2026-05-06 12:34 19.09059 72.88002 49 ft 8 kts 89°
2026-05-06 12:34 19.09050 72.88048 47 ft 6 kts 144°
2026-05-06 12:34 19.09000 72.88053 48 ft 9 kts 178°
2026-05-06 12:35 19.08982 72.88054 45 ft 3 kts 178°
2026-05-06 12:35 19.08937 72.88055 46 ft 9 kts 178°
2026-05-06 12:35 19.08888 72.88038 47 ft 7 kts 247°
2026-05-06 12:35 19.08888 72.87969 47 ft 16 kts 269°
2026-05-06 12:36 19.08884 72.87616 48 ft 81 kts 270°
2026-05-06 12:36 19.08872 72.86829 52 ft 131 kts 269°
2026-05-06 12:36 19.08876 72.85721 158 ft 162 kts 272°
2026-05-06 12:36 19.08824 72.84531 741 ft 163 kts 270°
2026-05-06 12:37 19.08776 72.83328 1318 ft 164 kts 271°
2026-05-06 12:37 19.08747 72.82118 1923 ft 166 kts 273°
2026-05-06 12:37 19.08723 72.80830 2154 ft 186 kts 272°
2026-05-06 12:37 19.08722 72.79380 2290 ft 209 kts 273°
2026-05-06 12:38 19.08721 72.77748 2491 ft 234 kts 272°
2026-05-06 12:38 19.08666 72.75941 2777 ft 259 kts 263°
2026-05-06 12:38 19.07927 72.74147 3289 ft 277 kts 232°
2026-05-06 12:38 19.06402 72.72960 3970 ft 284 kts 200°
2026-05-06 12:39 19.04426 72.72699 4699 ft 287 kts 178°
2026-05-06 12:39 19.02417 72.72799 5373 ft 291 kts 176°
2026-05-06 12:39 19.00394 72.72927 6184 ft 290 kts 176°
2026-05-06 12:39 18.98384 72.73063 6982 ft 289 kts 176°
2026-05-06 12:40 18.96379 72.73195 7775 ft 288 kts 177°
2026-05-06 12:40 18.94378 72.73321 8568 ft 288 kts 177°
2026-05-06 12:40 18.92370 72.73442 9301 ft 290 kts 177°
2026-05-06 12:40 18.90347 72.73560 9967 ft 294 kts 177°
2026-05-06 12:41 18.88233 72.73681 10149 ft 315 kts 177°
2026-05-06 12:41 18.85980 72.73811 10391 ft 332 kts 177°
2026-05-06 12:41 18.83647 72.73946 10878 ft 338 kts 177°
2026-05-06 12:41 18.81283 72.74084 11455 ft 342 kts 176°
2026-05-06 12:42 18.78895 72.74231 12023 ft 346 kts 174°
2026-05-06 12:42 18.76526 72.74703 12572 ft 349 kts 162°
2026-05-06 12:42 18.74213 72.75510 13138 ft 352 kts 160°
2026-05-06 12:42 18.71876 72.76326 13691 ft 355 kts 160°
2026-05-06 12:43 18.69512 72.77148 14177 ft 360 kts 160°
2026-05-06 12:43 18.67125 72.77976 14652 ft 364 kts 160°
2026-05-06 12:43 18.64707 72.78814 15116 ft 368 kts 161°
2026-05-06 12:43 18.62260 72.79661 15564 ft 372 kts 161°
2026-05-06 12:44 18.59817 72.80508 16029 ft 376 kts 161°
2026-05-06 12:44 18.57290 72.81383 16530 ft 379 kts 161°
2026-05-06 12:44 18.54804 72.82247 16970 ft 384 kts 161°
2026-05-06 12:44 18.52255 72.83133 17401 ft 388 kts 162°
2026-05-06 12:45 18.49670 72.84031 17857 ft 392 kts 162°
2026-05-06 12:45 18.47080 72.84930 18355 ft 393 kts 162°
2026-05-06 12:45 18.41856 72.86739 19301 ft 394 kts 162°
2026-05-06 12:46 18.39217 72.87652 19535 ft 402 kts 162°
2026-05-06 12:46 18.36538 72.88575 19828 ft 410 kts 163°
2026-05-06 12:46 18.33825 72.89510 20292 ft 411 kts 163°
2026-05-06 12:46 18.31100 72.90449 20714 ft 414 kts 161°
2026-05-06 12:47 18.28385 72.91393 21294 ft 412 kts 163°
2026-05-06 12:47 18.25635 72.92349 21459 ft 421 kts 163°
2026-05-06 12:47 18.22839 72.93322 21794 ft 425 kts 163°
2026-05-06 12:47 18.20018 72.94300 22187 ft 428 kts 163°
2026-05-06 12:48 18.17180 72.95279 22593 ft 431 kts 163°
2026-05-06 12:48 18.14327 72.96261 23009 ft 432 kts 163°
2026-05-06 12:48 18.11467 72.97263 23383 ft 435 kts 160°
2026-05-06 12:48 18.08730 72.98640 23677 ft 439 kts 149°
2026-05-06 12:49 18.06248 73.00515 23996 ft 441 kts 139°
2026-05-06 12:49 18.03977 73.02687 24309 ft 443 kts 137°
2026-05-06 12:49 18.01697 73.04877 24609 ft 445 kts 137°
2026-05-06 12:49 17.99405 73.07068 24918 ft 447 kts 138°
2026-05-06 12:50 17.97102 73.09265 25210 ft 449 kts 138°
2026-05-06 12:50 17.94786 73.11475 25521 ft 450 kts 138°
2026-05-06 12:50 17.92461 73.13695 25808 ft 452 kts 137°
2026-05-06 12:50 17.90132 73.15918 26124 ft 453 kts 137°
2026-05-06 12:51 17.87792 73.18147 26406 ft 455 kts 137°
2026-05-06 12:51 17.85441 73.20383 26685 ft 457 kts 138°
2026-05-06 12:51 17.83078 73.22626 26944 ft 460 kts 137°
2026-05-06 12:51 17.80705 73.24884 27230 ft 461 kts 137°
2026-05-06 12:52 17.78328 73.27148 27530 ft 463 kts 137°
2026-05-06 12:52 17.75942 73.29422 27790 ft 464 kts 137°
2026-05-06 12:52 17.73546 73.31704 28071 ft 465 kts 137°
2026-05-06 12:52 17.71149 73.33988 28358 ft 467 kts 137°
2026-05-06 12:53 17.68740 73.36281 28646 ft 468 kts 137°
2026-05-06 12:53 17.66323 73.38580 28930 ft 470 kts 137°
2026-05-06 12:53 17.63898 73.40883 29225 ft 471 kts 137°
2026-05-06 12:53 17.61461 73.43197 29502 ft 473 kts 137°
2026-05-06 12:54 17.59018 73.45515 29786 ft 475 kts 137°
2026-05-06 12:54 17.56564 73.47842 30026 ft 477 kts 137°
2026-05-06 12:54 17.54106 73.50174 30271 ft 477 kts 137°
2026-05-06 12:54 17.51715 73.52443 30595 ft 477 kts 137°
2026-05-06 12:55 17.49278 73.54754 30917 ft 476 kts 137°
2026-05-06 12:55 17.46809 73.57094 31271 ft 474 kts 137°
2026-05-06 12:55 17.44356 73.59418 31655 ft 472 kts 137°
2026-05-06 12:55 17.41916 73.61727 32033 ft 471 kts 138°
2026-05-06 12:56 17.39475 73.64036 32356 ft 470 kts 139°
2026-05-06 12:56 17.37070 73.66307 32715 ft 470 kts 139°
2026-05-06 12:56 17.34615 73.68624 33055 ft 469 kts 139°
2026-05-06 12:56 17.32260 73.70851 33463 ft 466 kts 139°
2026-05-06 12:57 17.29961 73.73025 33825 ft 464 kts 139°
2026-05-06 12:57 17.27485 73.75366 34176 ft 462 kts 139°
2026-05-06 12:57 17.25047 73.77670 34459 ft 461 kts 139°
2026-05-06 12:57 17.22686 73.79902 34714 ft 461 kts 139°
2026-05-06 12:58 17.20302 73.82153 34924 ft 462 kts 140°
2026-05-06 12:58 17.17883 73.84432 35165 ft 462 kts 139°
2026-05-06 12:58 17.15505 73.86666 35431 ft 461 kts 140°
2026-05-06 12:58 17.13112 73.88915 35726 ft 459 kts 139°
2026-05-06 12:59 17.10763 73.91126 35974 ft 459 kts 139°
2026-05-06 12:59 17.08363 73.93390 36183 ft 459 kts 139°
2026-05-06 12:59 17.06051 73.95575 36461 ft 458 kts 139°
2026-05-06 12:59 17.04429 73.97106 36621 ft 458 kts 140°
2026-05-06 13:00 17.01456 73.99902 36816 ft 458 kts 140°
2026-05-06 13:00 16.96658 74.04412 36856 ft 459 kts 139°
2026-05-06 13:01 16.91905 74.08881 36851 ft 460 kts 139°
2026-05-06 13:01 16.86804 74.12860 36844 ft 457 kts 154°
2026-05-06 13:02 16.81058 74.15680 36844 ft 457 kts 156°
2026-05-06 13:02 16.75308 74.18479 36841 ft 456 kts 156°
2026-05-06 13:03 16.69564 74.21283 36841 ft 456 kts 157°
2026-05-06 13:03 16.63817 74.24083 36845 ft 456 kts 156°
2026-05-06 13:04 16.58070 74.26881 36846 ft 456 kts 156°
2026-05-06 13:04 16.52321 74.29675 36853 ft 456 kts 156°
2026-05-06 13:05 16.46576 74.32468 36858 ft 455 kts 156°
2026-05-06 13:05 16.40833 74.35251 36857 ft 455 kts 156°
2026-05-06 13:06 16.35134 74.38023 36849 ft 455 kts 156°
2026-05-06 13:06 16.29399 74.40813 36849 ft 455 kts 156°
2026-05-06 13:07 16.23668 74.43587 36847 ft 454 kts 156°
2026-05-06 13:07 16.17934 74.46357 36849 ft 454 kts 156°
2026-05-06 13:08 16.12200 74.49127 36874 ft 454 kts 156°
2026-05-06 13:08 16.06472 74.51897 36894 ft 453 kts 156°
2026-05-06 13:09 16.00758 74.54660 36918 ft 453 kts 156°
2026-05-06 13:09 15.95050 74.57412 36940 ft 452 kts 156°
2026-05-06 13:10 15.89351 74.60163 36938 ft 451 kts 156°
2026-05-06 13:10 15.83663 74.62936 36939 ft 451 kts 156°
2026-05-06 13:11 15.78984 74.65354 36934 ft 452 kts 154°
2026-05-06 13:11 15.73401 74.68341 36922 ft 451 kts 154°
2026-05-06 13:12 15.67814 74.71303 36898 ft 451 kts 154°
2026-05-06 13:12 15.62212 74.74225 36866 ft 450 kts 155°
2026-05-06 13:13 15.56610 74.77136 36838 ft 450 kts 154°
2026-05-06 13:13 15.51008 74.80047 36810 ft 450 kts 155°
2026-05-06 13:14 15.45417 74.82966 36802 ft 450 kts 155°
2026-05-06 13:14 15.39829 74.85890 36803 ft 450 kts 155°
2026-05-06 13:15 15.34242 74.88806 36803 ft 449 kts 155°
2026-05-06 13:15 15.28654 74.91710 36808 ft 449 kts 155°
2026-05-06 13:16 15.23064 74.94609 36802 ft 449 kts 155°
2026-05-06 13:16 15.17482 74.97514 36799 ft 449 kts 154°
2026-05-06 13:17 15.11899 75.00420 36818 ft 449 kts 154°
2026-05-06 13:17 15.06309 75.03319 36817 ft 449 kts 154°
2026-05-06 13:18 15.00721 75.06220 36815 ft 449 kts 154°
2026-05-06 13:18 14.95172 75.09102 36812 ft 449 kts 154°
2026-05-06 13:19 14.89587 75.11989 36808 ft 449 kts 154°
2026-05-06 13:19 14.84008 75.14877 36814 ft 448 kts 154°
2026-05-06 13:20 14.78431 75.17765 36809 ft 448 kts 155°
2026-05-06 13:20 14.72854 75.20636 36829 ft 448 kts 155°
2026-05-06 13:21 14.67271 75.23498 36812 ft 448 kts 155°
2026-05-06 13:21 14.61693 75.26363 36810 ft 448 kts 155°
2026-05-06 13:22 14.56114 75.29228 36816 ft 448 kts 154°
2026-05-06 13:22 14.50536 75.32092 36810 ft 448 kts 154°
2026-05-06 13:23 14.44956 75.34954 36814 ft 448 kts 155°
2026-05-06 13:23 14.39380 75.37811 36803 ft 448 kts 154°
2026-05-06 13:24 14.33799 75.40670 36812 ft 448 kts 155°
2026-05-06 13:24 14.28222 75.43526 36824 ft 448 kts 154°
2026-05-06 13:25 14.22641 75.46381 36824 ft 448 kts 154°
2026-05-06 13:25 14.17060 75.49231 36825 ft 448 kts 155°
2026-05-06 13:26 14.11485 75.52085 36823 ft 447 kts 154°
2026-05-06 13:26 14.05916 75.54925 36844 ft 446 kts 154°
2026-05-06 13:27 14.00330 75.57715 36855 ft 446 kts 155°
2026-05-06 13:27 13.94746 75.60497 36853 ft 446 kts 155°
2026-05-06 13:28 13.89190 75.63272 36867 ft 445 kts 155°
2026-05-06 13:28 13.83648 75.66041 36865 ft 444 kts 155°
2026-05-06 13:29 13.78098 75.68819 36867 ft 444 kts 155°
2026-05-06 13:29 13.72545 75.71591 36861 ft 442 kts 154°
2026-05-06 13:30 13.67032 75.74341 36856 ft 442 kts 155°
2026-05-06 13:30 13.61473 75.77109 36846 ft 442 kts 154°
2026-05-06 13:31 13.55960 75.79864 36836 ft 442 kts 154°
2026-05-06 13:31 13.50415 75.82631 36853 ft 442 kts 154°
2026-05-06 13:32 13.44887 75.85383 36857 ft 442 kts 154°
2026-05-06 13:32 13.39334 75.88144 36856 ft 442 kts 154°
2026-05-06 13:33 13.33803 75.90889 36869 ft 442 kts 154°
2026-05-06 13:33 13.28326 75.93610 36859 ft 441 kts 154°
2026-05-06 13:34 13.22738 75.96386 36874 ft 441 kts 154°
2026-05-06 13:34 13.17213 75.99132 36863 ft 441 kts 154°
2026-05-06 13:35 13.11903 76.01770 36861 ft 441 kts 154°
2026-05-06 13:35 13.06424 76.04494 36882 ft 440 kts 154°
2026-05-06 13:36 13.00905 76.07227 36869 ft 439 kts 154°
2026-05-06 13:36 12.95400 76.09957 36874 ft 438 kts 154°
2026-05-06 13:37 12.89910 76.12678 36880 ft 438 kts 154°
2026-05-06 13:37 12.84424 76.15390 36880 ft 438 kts 154°
2026-05-06 13:38 12.78977 76.18082 36866 ft 438 kts 154°
2026-05-06 13:38 12.73494 76.20793 36875 ft 438 kts 154°
2026-05-06 13:39 12.67965 76.23532 36862 ft 437 kts 154°
2026-05-06 13:39 12.62488 76.26238 36862 ft 437 kts 154°
2026-05-06 13:40 12.57038 76.28932 36857 ft 437 kts 154°
2026-05-06 13:40 12.51535 76.31644 36857 ft 436 kts 154°
2026-05-06 13:41 12.46123 76.34314 36850 ft 436 kts 154°
2026-05-06 13:41 12.40644 76.37010 36865 ft 436 kts 154°
2026-05-06 13:42 12.35175 76.39702 36861 ft 436 kts 153°
2026-05-06 13:42 12.29733 76.42391 36879 ft 435 kts 153°
2026-05-06 13:43 12.24234 76.45100 36880 ft 435 kts 154°
2026-05-06 13:43 12.18809 76.47760 36897 ft 435 kts 154°
2026-05-06 13:44 12.13363 76.50453 36900 ft 435 kts 153°
2026-05-06 13:44 12.07926 76.53163 36890 ft 435 kts 153°
2026-05-06 13:45 12.02495 76.55864 36881 ft 434 kts 153°
2026-05-06 13:45 11.94339 76.59913 36868 ft 434 kts 153°
2026-05-06 13:46 11.88915 76.62594 36871 ft 434 kts 153°
2026-05-06 13:46 11.83488 76.65275 36892 ft 433 kts 153°
2026-05-06 13:47 11.78053 76.67970 36891 ft 433 kts 153°
2026-05-06 13:47 11.72642 76.70646 36906 ft 433 kts 153°
2026-05-06 13:48 11.67189 76.73337 36905 ft 434 kts 153°
2026-05-06 13:48 11.61760 76.76022 36911 ft 434 kts 153°
2026-05-06 13:49 11.56321 76.78710 36916 ft 434 kts 153°
2026-05-06 13:49 11.50882 76.81402 36911 ft 434 kts 153°
2026-05-06 13:50 11.45435 76.84092 36918 ft 434 kts 153°
2026-05-06 13:50 11.39996 76.86778 36903 ft 435 kts 154°
2026-05-06 13:51 11.34555 76.89471 36905 ft 435 kts 153°
2026-05-06 13:51 11.29151 76.92136 36888 ft 435 kts 154°
2026-05-06 13:52 11.23706 76.94819 36868 ft 435 kts 154°
2026-05-06 13:52 11.18259 76.97500 36862 ft 435 kts 154°
2026-05-06 13:53 11.12843 77.00170 36865 ft 435 kts 154°
2026-05-06 13:53 11.07440 77.02832 36861 ft 435 kts 154°
2026-05-06 13:54 11.02188 77.05854 36850 ft 434 kts 141°
2026-05-06 13:54 10.97589 77.09857 36844 ft 436 kts 140°
2026-05-06 13:55 10.92976 77.13870 36836 ft 437 kts 140°
2026-05-06 13:55 10.88355 77.17881 36838 ft 437 kts 140°
2026-05-06 13:56 10.83725 77.21907 36848 ft 438 kts 140°
2026-05-06 13:56 10.79291 77.25759 36838 ft 438 kts 139°
2026-05-06 13:57 10.74707 77.29738 36853 ft 438 kts 139°
2026-05-06 13:57 10.70029 77.33804 36850 ft 438 kts 139°
2026-05-06 13:58 10.65399 77.37829 36850 ft 438 kts 140°
2026-05-06 13:58 10.60770 77.41843 36874 ft 437 kts 140°
2026-05-06 13:59 10.56923 77.45175 36868 ft 437 kts 140°
2026-05-06 13:59 10.52295 77.49189 36862 ft 437 kts 140°
2026-05-06 14:00 10.47662 77.53199 36861 ft 438 kts 140°
2026-05-06 14:00 10.43032 77.57216 36897 ft 438 kts 140°
2026-05-06 14:01 10.38403 77.61231 36898 ft 437 kts 140°
2026-05-06 14:01 10.33781 77.65237 36898 ft 437 kts 140°
2026-05-06 14:02 10.29155 77.69235 36881 ft 437 kts 140°
2026-05-06 14:02 10.24519 77.73240 36887 ft 438 kts 140°
2026-05-06 14:03 10.19880 77.77248 36890 ft 438 kts 140°
2026-05-06 14:03 10.15289 77.81224 36885 ft 438 kts 140°
2026-05-06 14:04 10.10641 77.85251 36888 ft 438 kts 140°
2026-05-06 14:04 10.05999 77.89262 36886 ft 438 kts 140°
2026-05-06 14:05 10.01374 77.93242 36884 ft 438 kts 140°
2026-05-06 14:05 9.96755 77.97222 36850 ft 439 kts 140°
2026-05-06 14:06 9.92062 78.01272 36854 ft 440 kts 140°
2026-05-06 14:06 9.87391 78.05298 36849 ft 441 kts 140°
2026-05-06 14:07 9.82452 78.08964 36837 ft 440 kts 153°
2026-05-06 14:07 9.76719 78.11124 36850 ft 440 kts 162°
2026-05-06 14:08 9.70887 78.13040 36852 ft 441 kts 162°
2026-05-06 14:08 9.65048 78.14966 36853 ft 441 kts 162°
2026-05-06 14:09 9.59212 78.16896 36854 ft 441 kts 162°
2026-05-06 14:09 9.53381 78.18824 36854 ft 440 kts 161°
2026-05-06 14:10 9.47557 78.20751 36853 ft 440 kts 162°
2026-05-06 14:10 9.41737 78.22666 36852 ft 440 kts 162°
2026-05-06 14:11 9.35924 78.24577 36847 ft 439 kts 162°
2026-05-06 14:11 9.30110 78.26495 36844 ft 439 kts 162°
2026-05-06 14:12 9.24296 78.28412 36848 ft 439 kts 161°
2026-05-06 14:12 9.18490 78.30321 36844 ft 439 kts 161°
2026-05-06 14:13 9.12724 78.32215 36844 ft 438 kts 161°
2026-05-06 14:13 9.06928 78.34121 36844 ft 438 kts 161°
2026-05-06 14:14 9.01131 78.36022 36839 ft 438 kts 161°
2026-05-06 14:14 8.95344 78.37930 36839 ft 438 kts 161°
2026-05-06 14:15 8.89553 78.39837 36840 ft 438 kts 161°
2026-05-06 14:15 8.83756 78.41740 36839 ft 438 kts 161°
2026-05-06 14:16 8.77961 78.43641 36841 ft 438 kts 161°
2026-05-06 14:16 8.72163 78.45546 36841 ft 438 kts 161°
2026-05-06 14:17 8.66365 78.47449 36840 ft 438 kts 161°
2026-05-06 14:17 8.63475 78.48396 36586 ft 436 kts 161°
2026-05-06 14:17 8.60589 78.49340 35999 ft 436 kts 161°
2026-05-06 14:18 8.57705 78.50284 35522 ft 434 kts 161°
2026-05-06 14:18 8.54842 78.51223 35101 ft 431 kts 161°
2026-05-06 14:18 8.52000 78.52154 34840 ft 428 kts 161°
2026-05-06 14:18 8.49168 78.53083 34803 ft 429 kts 161°
2026-05-06 14:19 8.43479 78.54951 34814 ft 430 kts 161°
2026-05-06 14:19 8.37824 78.56809 34822 ft 430 kts 161°
2026-05-06 14:20 8.34983 78.57743 34637 ft 428 kts 161°
2026-05-06 14:20 8.32200 78.58748 34152 ft 421 kts 153°
2026-05-06 14:20 8.29762 78.60322 33397 ft 415 kts 138°
2026-05-06 14:20 8.27855 78.62479 32559 ft 411 kts 126°
2026-05-06 14:21 8.26186 78.64815 31717 ft 409 kts 126°
2026-05-06 14:21 8.24532 78.67143 30951 ft 406 kts 126°
2026-05-06 14:21 8.22892 78.69457 30194 ft 404 kts 126°
2026-05-06 14:21 8.21262 78.71755 29420 ft 401 kts 126°
2026-05-06 14:22 8.19642 78.74036 28653 ft 398 kts 126°
2026-05-06 14:22 8.18031 78.76297 27922 ft 395 kts 126°
2026-05-06 14:22 8.16429 78.78541 27180 ft 392 kts 126°
2026-05-06 14:22 8.14838 78.80766 26476 ft 389 kts 126°
2026-05-06 14:23 8.13260 78.82972 25769 ft 387 kts 126°
2026-05-06 14:23 8.11695 78.85164 25078 ft 384 kts 126°
2026-05-06 14:23 8.10139 78.87345 24365 ft 382 kts 126°
2026-05-06 14:23 8.08594 78.89510 23725 ft 378 kts 126°
2026-05-06 14:24 8.07064 78.91657 23015 ft 375 kts 126°
2026-05-06 14:24 8.05552 78.93779 22302 ft 371 kts 126°
2026-05-06 14:24 8.04049 78.95885 21603 ft 370 kts 126°
2026-05-06 14:24 8.02548 78.97983 21230 ft 368 kts 126°
2026-05-06 14:25 8.01056 79.00068 20855 ft 365 kts 126°
2026-05-06 14:25 7.99576 79.02139 20500 ft 363 kts 126°
2026-05-06 14:25 7.98124 79.04172 20138 ft 360 kts 126°
2026-05-06 14:25 7.96687 79.06183 19808 ft 357 kts 126°
2026-05-06 14:26 7.95270 79.08164 19417 ft 357 kts 126°
2026-05-06 14:26 7.93821 79.10186 19052 ft 356 kts 127°
2026-05-06 14:26 7.92375 79.12206 18697 ft 354 kts 127°
2026-05-06 14:26 7.90941 79.14209 18371 ft 351 kts 127°
2026-05-06 14:27 7.89514 79.16200 18028 ft 349 kts 127°
2026-05-06 14:27 7.88097 79.18175 17662 ft 346 kts 127°
2026-05-06 14:27 7.86693 79.20137 17146 ft 342 kts 126°
2026-05-06 14:27 7.85308 79.22073 16467 ft 340 kts 127°
2026-05-06 14:28 7.83923 79.24010 16001 ft 340 kts 127°
2026-05-06 14:28 7.82548 79.25932 15705 ft 336 kts 127°
2026-05-06 14:28 7.81205 79.27810 15379 ft 333 kts 126°
2026-05-06 14:28 7.79854 79.29696 15060 ft 331 kts 126°
2026-05-06 14:29 7.78524 79.31553 14700 ft 330 kts 126°
2026-05-06 14:29 7.77173 79.33443 14373 ft 328 kts 126°
2026-05-06 14:29 7.75844 79.35301 14053 ft 326 kts 126°
2026-05-06 14:29 7.74523 79.37147 13748 ft 323 kts 126°
2026-05-06 14:30 7.73207 79.38983 13403 ft 322 kts 126°
2026-05-06 14:30 7.71900 79.40800 13088 ft 318 kts 126°
2026-05-06 14:30 7.70604 79.42604 12714 ft 317 kts 126°
2026-05-06 14:30 7.69317 79.44400 12381 ft 315 kts 126°
2026-05-06 14:31 7.68039 79.46183 12024 ft 314 kts 126°
2026-05-06 14:31 7.66792 79.47927 11719 ft 311 kts 126°
2026-05-06 14:31 7.65506 79.49725 11393 ft 309 kts 126°
2026-05-06 14:31 7.64268 79.51452 11084 ft 307 kts 126°
2026-05-06 14:32 7.63027 79.53179 10657 ft 304 kts 126°
2026-05-06 14:32 7.61793 79.54895 10380 ft 301 kts 125°
2026-05-06 14:32 7.60572 79.56597 10084 ft 298 kts 125°
2026-05-06 14:32 7.59363 79.58284 9781 ft 296 kts 125°
2026-05-06 14:33 7.58161 79.59959 9454 ft 294 kts 124°
2026-05-06 14:33 7.56967 79.61622 9124 ft 292 kts 125°
2026-05-06 14:33 7.55781 79.63277 8801 ft 290 kts 125°
2026-05-06 14:33 7.54603 79.64921 8493 ft 288 kts 125°
2026-05-06 14:34 7.53432 79.66552 8170 ft 286 kts 125°
2026-05-06 14:34 7.52268 79.68171 7874 ft 284 kts 125°
2026-05-06 14:34 7.51110 79.69779 7562 ft 283 kts 126°
2026-05-06 14:34 7.49959 79.71379 7253 ft 281 kts 126°
2026-05-06 14:35 7.48785 79.72948 6934 ft 280 kts 131°
2026-05-06 14:35 7.47474 79.74378 6419 ft 277 kts 133°
2026-05-06 14:35 7.46136 79.75785 6089 ft 277 kts 134°
2026-05-06 14:35 7.44796 79.77174 5777 ft 275 kts 134°
2026-05-06 14:36 7.43463 79.78551 5488 ft 273 kts 134°
2026-05-06 14:36 7.42147 79.79916 5187 ft 271 kts 134°
2026-05-06 14:36 7.40836 79.81280 4884 ft 270 kts 134°
2026-05-06 14:36 7.39532 79.82639 4574 ft 269 kts 134°
2026-05-06 14:37 7.38237 79.83989 4249 ft 268 kts 134°
2026-05-06 14:37 7.36946 79.85338 3938 ft 266 kts 134°
2026-05-06 14:37 7.35662 79.86678 3639 ft 265 kts 134°
2026-05-06 14:37 7.34386 79.88010 3326 ft 264 kts 134°
2026-05-06 14:38 7.33118 79.89336 3024 ft 262 kts 135°
2026-05-06 14:38 7.31863 79.90649 2623 ft 256 kts 135°
2026-05-06 14:38 7.30661 79.91911 2207 ft 245 kts 135°
2026-05-06 14:38 7.29464 79.93092 2005 ft 237 kts 144°
2026-05-06 14:39 7.28113 79.93917 1893 ft 223 kts 159°
2026-05-06 14:39 7.26651 79.94300 1814 ft 208 kts 178°
2026-05-06 14:39 7.25306 79.93975 1649 ft 195 kts 214°
2026-05-06 14:39 7.24353 79.93125 1437 ft 179 kts 220°
2026-05-06 14:40 7.23407 79.92349 1074 ft 171 kts 216°
2026-05-06 14:40 7.22477 79.91683 856 ft 154 kts 213°
2026-05-06 14:40 7.21654 79.91060 638 ft 144 kts 216°
2026-05-06 14:40 7.20865 79.90460 440 ft 142 kts 217°
2026-05-06 14:41 7.20077 79.89868 262 ft 141 kts 214°
2026-05-06 14:41 7.19293 79.89272 90 ft 142 kts 216°
2026-05-06 14:41 7.18551 79.88707 28 ft 116 kts 214°
2026-05-06 14:41 7.18043 79.88321 29 ft 68 kts 217°
2026-05-06 14:42 7.17717 79.88073 30 ft 54 kts 217°
2026-05-06 14:42 7.17558 79.87950 30 ft 12 kts 217°
2026-05-06 14:42 7.17508 79.87935 30 ft 8 kts 157°
2026-05-06 14:42 7.17463 79.87987 29 ft 12 kts 127°
2026-05-06 14:43 7.17418 79.88053 28 ft 10 kts 103°
2026-05-06 14:43 7.17466 79.88107 27 ft 12 kts 36°
2026-05-06 14:43 7.17539 79.88161 28 ft 14 kts 38°
2026-05-06 14:43 7.17625 79.88227 28 ft 17 kts 37°
2026-05-06 14:44 7.17725 79.88303 28 ft 19 kts 37°
2026-05-06 14:44 7.17833 79.88385 28 ft 8 kts 36°
2026-05-06 14:44 7.17852 79.88440 27 ft 10 kts 105°
2026-05-06 14:45 7.17753 79.88575 27 ft 9 kts 127°
2026-05-06 14:45 7.17708 79.88569 27 ft 8 kts 219°
2026-05-06 14:45 7.17671 79.88539 27 ft 4 kts 217°
2026-05-06 14:45 7.17653 79.88526 27 ft 0 kts 217°